Scottsdale, AZ

1:34 PM MST on February 24, 2017 (GMT -0700)
Scottsdale

Weather History for KSDL - September, 2013

Change the Weather History Date:

Monday, September 9, 2013

  Actual Average Record
Temperature  
Mean Temperature 76 °F -  
Max Temperature 82 °F 96 °F 105 °F (1997)
Min Temperature 71 °F 76 °F 69 °F (2006)
Cooling Degree Days 12    
Growing Degree Days 26 (Base 50)    
Moisture  
Dew Point 68 °F    
Average Humidity 77    
Maximum Humidity 94    
Minimum Humidity 51    
Precipitation  
Precipitation 0.46 in - - ()
Sea Level Pressure  
Sea Level Pressure 29.76 in    
Wind  
Wind Speed 1 mph (NE)    
Max Wind Speed 10 mph    
Max Gust Speed -    
Visibility 9 miles    
Events Rain    
Averages and records for this station are not official NWS values.
T = Trace of Precipitation, MM = Missing Value Source: NWS Daily Summary

Daily Weather History Graph

Daily Weather History Graph

Search for Another Location

Airport or City:

Trip Planner

Search our weather history database for the weather conditions in past years. The results will help you decide how hot, cold, wet, or windy it might be!

Date:

Astronomy

Sep. 09, 2013 Rise Set
Actual Time 6:07 AM MST 6:41 PM MST
Civil Twilight 5:42 AM MST 7:06 PM MST
Nautical Twilight 5:12 AM MST 7:36 PM MST
Astronomical Twilight 4:42 AM MST 8:06 PM MST
Moon 10:17 AM MST (9/9) 9:17 PM MST (9/9)
Length of Visible Light 13h 24m
Length of Day
12h 34m
Waxing Crescent, 20% of the Moon is Illuminated
Sep 9
Waxing Crescent
Sep 12
First Quarter
Sep 19
Full
Sep 26
Last Quarter
Oct 4
New

Hourly Weather History & Observations

Time (MST) Temp. Heat Index Dew Point Humidity Pressure Visibility Wind Dir Wind Speed Gust Speed Precip Events Conditions
12:53 AM 81.0 °F 83.8 °F 68.0 °F 65% 29.74 in 10.0 mi Calm Calm - N/A   Scattered Clouds
1:53 AM 80.1 °F 82.9 °F 69.1 °F 69% 29.74 in 10.0 mi Calm Calm - N/A   Clear
2:53 AM 79.0 °F - 70.0 °F 74% 29.72 in 10.0 mi Calm Calm - N/A   Mostly Cloudy
3:53 AM 79.0 °F - 70.0 °F 74% 29.71 in 10.0 mi Calm Calm - N/A   Scattered Clouds
4:53 AM 78.1 °F - 71.1 °F 79% 29.72 in 10.0 mi Calm Calm - 0.00 in   Mostly Cloudy
5:53 AM 78.1 °F - 69.1 °F 74% 29.73 in 10.0 mi SE 4.6 mph - 0.00 in Rain Light Rain
6:53 AM 75.0 °F - 70.0 °F 84% 29.75 in 10.0 mi Calm Calm - 0.01 in Rain Light Rain
7:53 AM 75.9 °F - 72.0 °F 87% 29.76 in 10.0 mi Calm Calm - 0.01 in   Mostly Cloudy
8:05 AM 77.0 °F - 69.8 °F 78% 29.83 in 10.0 mi East 4.6 mph - N/A   Mostly Cloudy
8:18 AM 77.0 °F - 69.8 °F 78% 29.83 in 10.0 mi NE 3.5 mph - N/A   Mostly Cloudy
8:53 AM 78.1 °F - 69.1 °F 74% 29.77 in 10.0 mi Calm Calm - 0.00 in Rain Light Rain
9:53 AM 77.0 °F - 70.0 °F 79% 29.78 in 7.0 mi Calm Calm - 0.03 in Rain Light Rain
10:53 AM 75.0 °F - 71.1 °F 87% 29.79 in 4.0 mi SSE 4.6 mph - 0.03 in Rain Rain
11:53 AM 72.0 °F - 70.0 °F 93% 29.79 in 3.0 mi Calm Calm - 0.13 in Rain Heavy Rain
12:24 PM 71.6 °F - 69.8 °F 94% 29.85 in 2.5 mi Calm Calm - 0.11 in Rain Rain
12:32 PM 71.6 °F - 69.8 °F 94% 29.85 in 3.0 mi Calm Calm - 0.14 in Rain Rain
12:49 PM 71.6 °F - 69.8 °F 94% 29.85 in 3.0 mi NNW 4.6 mph - 0.22 in Rain Heavy Rain
12:53 PM 72.0 °F - 70.0 °F 93% 29.78 in 3.0 mi NNW 6.9 mph - 0.23 in Rain Heavy Rain
1:16 PM 71.6 °F - 66.2 °F 83% 29.84 in 10.0 mi East 5.8 mph - 0.02 in Rain Light Rain
1:53 PM 75.0 °F - 69.1 °F 82% 29.77 in 10.0 mi South 3.5 mph - 0.02 in   Mostly Cloudy
2:16 PM 73.4 °F - 69.8 °F 88% 29.83 in 10.0 mi Calm Calm - 0.00 in Rain Light Rain
2:36 PM 75.2 °F - 69.8 °F 83% 29.82 in 10.0 mi Calm Calm - 0.00 in   Scattered Clouds
2:53 PM 78.1 °F - 70.0 °F 76% 29.73 in 10.0 mi Calm Calm - 0.00 in   Clear
3:53 PM 81.0 °F 81.9 °F 62.1 °F 52% 29.71 in 10.0 mi NNE 10.4 mph - N/A   Clear
4:53 PM 82.0 °F 83.0 °F 62.1 °F 51% 29.72 in 10.0 mi Calm Calm - N/A   Clear
5:53 PM 81.0 °F 82.2 °F 63.0 °F 54% 29.71 in 10.0 mi West 4.6 mph - N/A   Partly Cloudy
6:53 PM 80.1 °F 81.5 °F 63.0 °F 56% 29.70 in 10.0 mi Calm Calm - N/A   Clear
7:53 PM 79.0 °F - 66.0 °F 64% 29.70 in 10.0 mi North 3.5 mph - N/A   Partly Cloudy
8:53 PM 77.0 °F - 66.9 °F 71% 29.72 in 10.0 mi Calm Calm - N/A   Clear
9:53 PM 75.9 °F - 68.0 °F 76% 29.72 in 10.0 mi Calm Calm - N/A   Clear
10:53 PM 75.0 °F - 68.0 °F 79% 29.74 in 10.0 mi Calm Calm - N/A   Clear
11:53 PM 75.9 °F - 68.0 °F 76% 29.76 in 10.0 mi Calm Calm - N/A   Clear